Location: Unspecified
(17.6330°N, 0.0000°E)
Time: 14:24:46
(UTC+00:00)

Courier 1B Rocket - Pass Details

Date: 25 June 2019
Orbit: 920 x 1202 km, 28.3° (Epoch: 19 August)

Event Time Altitude Azimuth Distance (km) Brightness Sun altitude
Exits shadow 02:41:07 54° 337° (NNW) 1,298 5.6 -33.6°
Maximum altitude 02:41:17 54° 342° (NNW) 1,295 5.6 -33.6°
Drops below altitude 10° 02:48:03 10° 59° (ENE) 2,820 8.2 -32.4°
Sets 02:50:44 0° 64° (ENE) 3,730 9.1 -32.0°
